TimeMST,TemperatureF,Dew PointF,Humidity,Sea Level PressureIn,VisibilityMPH,Wind Direction,Wind SpeedMPH,Gust SpeedMPH,PrecipitationIn,Events,Conditions,WindDirDegrees,DateUTC
12:53 AM,50.0,33.1,52,29.90,10.0,Calm,Calm,-,N/A,,Clear,0,2012-12-09 07:53:00
1:53 AM,52.0,33.1,49,29.90,10.0,North,8.1,-,N/A,,Clear,10,2012-12-09 08:53:00
2:53 AM,48.9,32.0,52,29.90,10.0,Calm,Calm,-,N/A,,Clear,0,2012-12-09 09:53:00
3:53 AM,46.9,32.0,56,29.91,10.0,Calm,Calm,-,N/A,,Clear,0,2012-12-09 10:53:00
4:53 AM,46.0,30.9,56,29.91,10.0,East,3.5,-,N/A,,Clear,100,2012-12-09 11:53:00
5:53 AM,46.0,30.9,56,29.93,10.0,Calm,Calm,-,N/A,,Clear,0,2012-12-09 12:53:00
6:53 AM,44.1,30.9,60,29.93,10.0,ESE,5.8,-,N/A,,Clear,110,2012-12-09 13:53:00
7:53 AM,48.9,32.0,52,29.96,10.0,NE,8.1,-,N/A,,Clear,40,2012-12-09 14:53:00
8:53 AM,50.0,32.0,50,29.96,10.0,Calm,Calm,-,N/A,,Clear,0,2012-12-09 15:53:00
9:53 AM,55.0,32.0,42,29.98,10.0,Calm,Calm,-,N/A,,Clear,0,2012-12-09 16:53:00
10:53 AM,59.0,32.0,36,29.99,10.0,SSE,4.6,-,N/A,,Clear,150,2012-12-09 17:53:00
11:53 AM,62.1,30.9,31,29.97,10.0,Variable,4.6,-,N/A,,Clear,0,2012-12-09 18:53:00
12:53 PM,64.0,30.9,29,29.94,10.0,South,5.8,-,N/A,,Clear,190,2012-12-09 19:53:00
1:53 PM,64.9,28.9,26,29.91,10.0,South,4.6,-,N/A,,Clear,180,2012-12-09 20:53:00
3:53 PM,66.9,28.0,23,29.92,10.0,WSW,8.1,-,N/A,,Clear,240,2012-12-09 22:53:00
4:53 PM,64.9,28.9,26,29.93,10.0,WSW,9.2,-,N/A,,Clear,240,2012-12-09 23:53:00
5:53 PM,62.1,28.0,28,29.96,10.0,Calm,Calm,-,N/A,,Clear,0,2012-12-10 00:53:00
6:53 PM,63.0,21.9,21,29.99,10.0,North,12.7,20.7,N/A,,Clear,10,2012-12-10 01:53:00
7:19 PM,62.6,6.8,11,30.00,4.0,North,26.5,35.7,N/A,,Haze,360,2012-12-10 02:19:00
7:53 PM,61.0,8.1,12,30.01,10.0,North,20.7,28.8,N/A,,Clear,350,2012-12-10 02:53:00
8:53 PM,57.9,10.9,16,30.04,10.0,NNE,17.3,24.2,N/A,,Clear,20,2012-12-10 03:53:00
9:53 PM,55.9,12.0,18,30.06,10.0,North,23.0,28.8,N/A,,Clear,10,2012-12-10 04:53:00
10:53 PM,55.0,10.0,17,30.09,10.0,NNE,15.0,21.9,N/A,,Clear,20,2012-12-10 05:53:00
11:53 PM,53.1,8.1,16,30.11,10.0,NNE,12.7,-,N/A,,Clear,20,2012-12-10 06:53:00